FW6209 Weather Reports


Display with metric or nautical units.
time (UTC)temp
F
wind
direction
speed
MPH
gust
MPH
rain 1hr
in
rain 24hr
in
rain mn
in
humidity
%
barometer
mb
20260901095258 61 321 0.0 0.0 0.00 0.00 0.00 92 1013.8
20260901094756 61 321 0.0 0.0 0.00 0.00 0.00 91 1013.8
20260901094257 62 321 0.0 0.0 0.00 0.00 0.00 92 1013.8
20260901093758 62 321 0.0 0.0 0.00 0.00 0.00 92 1013.8
20260901093258 62 321 0.0 0.0 0.00 0.00 0.00 92 1013.8
20260901092757 62 321 0.0 0.0 0.00 0.00 0.00 92 1013.8
20260901092257 62 321 0.0 0.0 0.00 0.00 0.00 92 1013.7
20260901091757 62 321 0.0 0.0 0.00 0.00 0.00 92 1013.7
20260901091258 62 321 0.0 0.0 0.00 0.00 0.00 92 1013.8
20260901090754 62 321 0.0 0.0 0.00 0.00 0.00 91 1013.7
20260901090253 62 321 0.0 0.0 0.00 0.00 0.00 91 1013.7
20260901085755 62 321 0.0 0.0 0.00 0.00 0.00 91 1013.8
20260901085253 62 321 0.0 0.0 0.00 0.00 0.00 90 1013.8
20260901084752 63 321 0.0 0.0 0.00 0.00 0.00 90 1013.7
20260901084253 63 321 0.0 0.0 0.00 0.00 0.00 91 1013.8
20260901083754 63 321 0.0 0.0 0.00 0.00 0.00 91 1013.7
20260901083254 63 321 0.0 0.0 0.00 0.00 0.00 91 1013.8
20260901082755 63 321 0.0 0.0 0.00 0.00 0.00 88 1013.8
20260901082250 63 321 0.0 0.0 0.00 0.00 0.00 88 1013.8
20260901081751 63 321 0.0 0.0 0.00 0.00 0.00 89 1013.8
20260901081248 63 321 0.0 0.0 0.00 0.00 0.00 89 1013.8
20260901080750 63 321 0.0 0.0 0.00 0.00 0.00 89 1013.8
20260901080509 63 199 0.0 0.0 0.00 0.00 0.00 88 1013.7
20260901075750 63 199 0.0 0.0 0.00 0.00 0.00 88 1013.7
20260901075248 62 199 0.0 0.0 0.00 0.00 0.00 87 1013.7
20260901074749 62 199 0.0 0.0 0.00 0.00 0.00 85 1013.8
20260901074252 62 199 0.0 0.0 0.00 0.00 0.00 85 1013.9
20260901073754 63 199 0.0 0.0 0.00 0.00 0.00 86 1014.0
20260901073250 63 199 0.0 0.0 0.00 0.00 0.00 87 1014.0
20260901072750 63 199 0.0 0.0 0.00 0.00 0.00 87 1014.0
20260901072512 63 199 0.0 0.0 0.00 0.00 0.00 88 1014.0
20260901071749 63 199 0.0 0.0 0.00 0.00 0.00 88 1014.0
20260901071248 63 199 0.0 0.0 0.00 0.00 0.00 89 1014.0
20260901070749 63 199 0.0 0.0 0.00 0.00 0.00 89 1013.9
20260901070248 63 199 0.0 0.0 0.00 0.00 0.00 88 1013.9
20260901065749 63 199 0.0 0.0 0.00 0.00 0.00 88 1014.0
20260901065242 63 199 0.0 0.0 0.00 0.00 0.00 88 1014.0
20260901064736 63 199 0.0 0.0 0.00 0.00 0.00 87 1014.0
20260901064446 63 199 0.0 0.0 0.00 0.00 0.00 87 1013.9
20260901063724 64 199 0.0 0.0 0.00 0.00 0.00 87 1013.8
20260901063218 64 199 0.0 0.0 0.00 0.00 0.00 85 1014.0
20260901062951 64 199 0.0 0.0 0.00 0.00 0.00 85 1013.9
20260901062206 64 199 0.0 0.0 0.00 0.00 0.00 85 1013.9
20260901061703 64 199 0.0 0.0 0.00 0.00 0.00 84 1013.9
20260901061154 64 199 0.0 0.0 0.00 0.00 0.00 84 1013.9
20260901060648 64 199 0.0 0.0 0.00 0.00 0.00 83 1013.8
20260901060408 65 199 0.0 0.0 0.00 0.00 0.00 83 1014.0
20260901055637 65 199 0.0 0.0 0.00 0.00 0.00 81 1013.9
20260901055133 65 199 0.0 0.0 0.00 0.00 0.00 81 1013.9
20260901054627 65 199 0.0 0.0 0.00 0.00 0.00 81 1013.9
20260901054118 65 199 0.0 0.0 0.00 0.00 0.00 79 1013.8
20260901053612 65 199 0.0 0.0 0.00 0.00 0.00 79 1013.8
20260901053106 65 199 0.0 0.0 0.00 0.00 0.00 79 1013.9
20260901052600 66 199 0.0 0.0 0.00 0.00 0.00 78 1013.8
20260901052054 66 199 0.0 0.0 0.00 0.00 0.00 77 1013.8
20260901051548 66 199 0.0 0.0 0.00 0.00 0.00 77 1013.9
20260901051043 66 199 0.0 0.0 0.00 0.00 0.00 78 1013.7
20260901050537 66 199 0.0 0.0 0.00 0.00 0.00 78 1013.9
20260901050031 66 199 0.0 0.0 0.00 0.00 0.00 79 1013.9
20260901045524 66 199 0.0 0.0 0.00 0.00 0.00 79 1013.8
20260901045019 66 199 0.0 0.0 0.00 0.00 0.00 79 1013.8
20260901044512 67 199 0.0 0.0 0.00 0.00 0.00 80 1013.7
20260901044233 67 199 0.0 0.0 0.00 0.00 0.00 79 1013.7
20260901043501 67 164 0.0 0.0 0.00 0.00 0.00 79 1013.7
20260901042957 67 171 0.0 0.0 0.00 0.00 0.00 78 1013.6
20260901042944 67 189 0.0 0.0 0.00 0.00 0.00 78 1013.6
20260901041942 67 175 0.0 2.0 0.00 0.00 0.00 78 1013.6
20260901041703 67 191 0.0 2.0 0.00 0.00 0.00 77 1013.7
20260901040930 67 196 0.0 2.0 0.00 0.00 0.00 77 1013.6
20260901040424 67 188 0.0 2.0 0.00 0.00 0.00 77 1013.6
20260901040355 68 179 0.0 0.0 0.00 0.00 0.00 77 1013.6
20260901035636 68 173 0.0 0.0 0.00 0.00 0.00 76 1013.3
20260901034906 68 171 0.0 0.0 0.00 0.00 0.00 76 1013.2
20260901034407 68 178 0.0 0.0 0.00 0.00 0.00 77 1013.2
20260901033907 68 170 0.0 0.0 0.00 0.00 0.00 77 1013.2
20260901033407 69 160 0.0 0.0 0.00 0.00 0.00 76 1013.1
20260901033124 69 169 0.0 0.0 0.00 0.00 0.00 75 1013.0
20260901032403 69 187 0.0 0.0 0.00 0.00 0.00 75 1013.0
20260901031859 69 192 0.0 0.0 0.00 0.00 0.00 74 1012.8
20260901031358 69 207 0.0 0.0 0.00 0.00 0.00 74 1012.7
20260901030857 69 225 0.0 0.0 0.00 0.00 0.00 73 1012.6
20260901030359 70 184 0.0 1.0 0.00 0.00 0.00 73 1012.6
20260901025856 70 173 0.0 1.0 0.00 0.00 0.00 72 1012.5
20260901025356 71 196 0.0 1.0 0.00 0.00 0.00 71 1012.7
20260901024855 71 198 0.0 1.0 0.00 0.00 0.00 70 1012.6
20260901024354 72 190 0.0 0.0 0.00 0.00 0.00 68 1012.5
20260901023854 72 238 0.0 0.0 0.00 0.00 0.00 67 1012.4
20260901023354 73 221 0.0 0.0 0.00 0.00 0.00 66 1012.4
20260901022856 73 225 0.0 0.0 0.00 0.00 0.00 65 1012.4
20260901022355 74 210 0.0 0.0 0.00 0.00 0.00 64 1012.3
20260901021853 74 232 0.0 0.0 0.00 0.00 0.00 62 1012.3
20260901021352 75 232 0.0 0.0 0.00 0.00 0.00 60 1012.2
20260901021114 75 232 0.0 0.0 0.00 0.00 0.00 60 1012.1
20260901020340 76 232 0.0 0.0 0.00 0.00 0.00 59 1012.1
20260901015834 76 232 0.0 0.0 0.00 0.00 0.00 58 1012.2
20260901015330 76 236 0.0 0.0 0.00 0.00 0.00 57 1012.1
20260901015044 76 236 0.0 0.0 0.00 0.00 0.00 56 1012.0
20260901014318 76 279 0.0 0.0 0.00 0.00 0.00 57 1012.1
20260901013814 76 277 0.0 2.0 0.00 0.00 0.00 56 1012.1
20260901013535 77 248 0.0 2.0 0.00 0.00 0.00 56 1012.1
20260901012801 78 245 0.0 5.0 0.00 0.00 0.00 56 1011.9
20260901012252 78 233 0.0 5.0 0.00 0.00 0.00 54 1012.0
20260901011746 79 259 1.0 5.0 0.00 0.00 0.00 53 1012.1
20260901011240 79 204 1.0 6.0 0.00 0.00 0.00 53 1012.1
20260901010734 80 232 0.0 6.0 0.00 0.00 0.00 51 1012.1
20260901010228 80 173 0.0 7.0 0.00 0.00 0.00 49 1012.1
20260901005722 80 221 1.0 7.0 0.00 0.00 0.00 49 1012.3
20260901005216 80 165 1.0 6.0 0.00 0.00 0.00 45 1012.5
20260901004710 80 266 1.0 6.0 0.00 0.00 0.00 45 1012.4
20260901004204 81 205 1.0 6.0 0.00 0.00 0.00 45 1012.5
20260901003659 80 225 0.0 6.0 0.00 0.00 0.00 47 1012.4
20260901003423 80 225 0.0 6.0 0.00 0.00 0.00 47 1012.3
20260901002647 80 217 1.0 7.0 0.00 0.00 0.00 48 1012.3
20260901002141 80 246 2.0 7.0 0.00 0.00 0.00 50 1012.3
20260901001635 80 239 3.0 10.0 0.00 0.00 0.00 49 1012.5
20260901001129 80 227 3.0 10.0 0.00 0.00 0.00 49 1012.3
20260901000624 81 251 3.0 11.0 0.00 0.00 0.00 49 1012.3
20260901000115 81 248 3.0 11.0 0.00 0.00 0.00 46 1012.3
20260831235610 82 201 3.0 9.0 0.00 0.00 0.00 47 1012.3
20260831235105 82 243 3.0 10.0 0.00 0.00 0.00 46 1012.4
20260831234815 83 259 2.0 10.0 0.00 0.00 0.00 46 1012.3
20260831234052 83 244 0.0 8.0 0.00 0.00 0.00 44 1012.4
20260831233546 83 187 0.0 7.0 0.00 0.00 0.00 41 1012.4
20260831233041 82 213 0.0 8.0 0.00 0.00 0.00 42 1012.4
20260831232534 82 163 1.0 8.0 0.00 0.00 0.00 40 1012.3
20260831232249 83 268 2.0 8.0 0.00 0.00 0.00 47 1012.3
20260831231744 83 213 1.0 10.0 0.00 0.00 0.00 43 1012.3
20260831231017 83 287 1.0 10.0 0.00 0.00 0.00 45 1012.4
20260831230510 83 213 2.0 10.0 0.00 0.00 0.00 45 1012.3
20260831230004 82 208 3.0 11.0 0.00 0.00 0.00 46 1012.5
20260831225458 82 242 3.0 11.0 0.00 0.00 0.00 45 1012.5
20260831225214 83 251 2.0 11.0 0.00 0.00 0.00 46 1012.5
20260831224446 83 231 3.0 13.0 0.00 0.00 0.00 46 1012.6
20260831223940 83 205 4.0 13.0 0.00 0.00 0.00 45 1012.7
20260831223921 83 238 4.0 11.0 0.00 0.00 0.00 43 1012.6
20260831223419 83 234 3.0 11.0 0.00 0.00 0.00 44 1012.7
20260831222646 84 179 1.0 8.0 0.00 0.00 0.00 45 1012.7
20260831221916 83 229 2.0 13.0 0.00 0.00 0.00 43 1012.8
20260831221410 83 227 5.0 13.0 0.00 0.00 0.00 46 1012.9
20260831220904 83 230 4.0 13.0 0.00 0.00 0.00 46 1012.8
20260831220359 83 234 3.0 10.0 0.00 0.00 0.00 47 1012.9
20260831215852 83 209 3.0 11.0 0.00 0.00 0.00 46 1012.7
20260831215347 83 248 3.0 11.0 0.00 0.00 0.00 47 1012.8
20260831214841 83 238 3.0 11.0 0.00 0.00 0.00 46 1012.8
20260831214334 83 234 3.0 11.0 0.00 0.00 0.00 47 1012.8
20260831213829 84 223 1.0 11.0 0.00 0.00 0.00 45 1012.7
20260831213322 83 198 1.0 11.0 0.00 0.00 0.00 46 1012.7
20260831212817 83 184 4.0 12.0 0.00 0.00 0.00 49 1012.8
20260831212310 83 225 4.0 12.0 0.00 0.00 0.00 48 1012.9
20260831211804 83 214 3.0 12.0 0.00 0.00 0.00 50 1012.9
20260831211525 83 218 3.0 14.0 0.00 0.00 0.00 51 1013.0
20260831211014 83 244 4.0 14.0 0.00 0.00 0.00 51 1013.1
20260831210505 83 245 6.0 14.0 0.00 0.00 0.00 51 1013.1
20260831210002 83 236 6.0 14.0 0.00 0.00 0.00 51 1013.2
20260831205241 84 232 5.0 13.0 0.00 0.00 0.00 51 1013.2
20260831204740 85 234 4.0 13.0 0.00 0.00 0.00 51 1013.2
20260831204239 85 245 3.0 12.0 0.00 0.00 0.00 51 1013.3
20260831203737 85 205 3.0 12.0 0.00 0.00 0.00 51 1013.3
20260831203237 85 229 3.0 14.0 0.00 0.00 0.00 51 1013.3
20260831203001 85 241 2.0 14.0 0.00 0.00 0.00 51 1013.2
20260831202239 85 198 1.0 7.0 0.00 0.00 0.00 51 1013.3
20260831202006 85 263 1.0 10.0 0.00 0.00 0.00 51 1013.4
20260831201239 85 209 1.0 10.0 0.00 0.00 0.00 52 1013.6
20260831200737 85 179 2.0 10.0 0.00 0.00 0.00 52 1013.4
20260831200502 85 169 1.0 10.0 0.00 0.00 0.00 51 1013.6
20260831195739 85 167 2.0 12.0 0.00 0.00 0.00 51 1013.6
20260831195237 85 112 2.0 12.0 0.00 0.00 0.00 52 1013.3
20260831194733 86 233 1.0 10.0 0.00 0.00 0.00 53 1013.4
20260831194233 86 154 1.0 10.0 0.00 0.00 0.00 53 1013.4
20260831193958 86 197 1.0 9.0 0.00 0.00 0.00 52 1013.7
20260831193448 86 220 1.0 9.0 0.00 0.00 0.00 52 1013.7
20260831192959 86 234 1.0 8.0 0.00 0.00 0.00 52 1013.7
20260831192458 85 229 2.0 10.0 0.00 0.00 0.00 51 1013.4
20260831191721 85 213 2.0 10.0 0.00 0.00 0.00 52 1013.8
20260831191215 86 264 0.0 6.0 0.00 0.00 0.00 50 1013.8
20260831190932 86 193 0.0 8.0 0.00 0.00 0.00 50 1013.6
20260831190203 85 212 0.0 8.0 0.00 0.00 0.00 49 1013.7
20260831185659 85 182 1.0 8.0 0.00 0.00 0.00 49 1013.7
20260831185151 85 230 1.0 8.0 0.00 0.00 0.00 50 1013.4
20260831184645 85 245 0.0 5.0 0.00 0.00 0.00 48 1013.6
20260831184139 85 186 0.0 5.0 0.00 0.00 0.00 49 1013.7
20260831183634 85 234 0.0 5.0 0.00 0.00 0.00 46 1013.8
20260831183131 85 190 0.0 4.0 0.00 0.00 0.00 47 1013.8
20260831182621 84 139 0.0 4.0 0.00 0.00 0.00 47 1013.7
20260831182116 84 107 0.0 4.0 0.00 0.00 0.00 47 1013.6
20260831181609 84 286 0.0 2.0 0.00 0.00 0.00 47 1013.7
20260831181103 84 238 0.0 2.0 0.00 0.00 0.00 48 1013.7
20260831180557 83 162 0.0 2.0 0.00 0.00 0.00 50 1013.7
20260831180051 83 201 0.0 2.0 0.00 0.00 0.00 50 1013.7
20260831175545 83 245 0.0 2.0 0.00 0.00 0.00 52 1013.9
20260831175039 82 253 0.0 2.0 0.00 0.00 0.00 52 1013.8
20260831174535 82 134 0.0 0.0 0.00 0.00 0.00 53 1013.8
20260831174257 81 246 0.0 5.0 0.00 0.00 0.00 54 1013.7
20260831173521 81 44 0.0 5.0 0.00 0.00 0.00 54 1013.7
20260831173015 80 150 0.0 5.0 0.00 0.00 0.00 54 1013.8
20260831172510 80 180 0.0 5.0 0.00 0.00 0.00 54 1013.6
20260831172004 80 206 0.0 5.0 0.00 0.00 0.00 56 1013.7
20260831171456 80 165 0.0 5.0 0.00 0.00 0.00 54 1013.7
20260831170951 79 5 0.0 2.0 0.00 0.00 0.00 58 1013.7
20260831170445 79 216 0.0 1.0 0.00 0.00 0.00 60 1013.7
20260831165939 79 274 0.0 1.0 0.00 0.00 0.00 61 1013.7
20260831165434 78 241 0.0 0.0 0.00 0.00 0.00 61 1013.7
20260831165149 78 112 0.0 0.0 0.00 0.00 0.00 64 1013.6
20260831164421 77 165 0.0 0.0 0.00 0.00 0.00 65 1013.3
20260831163915 77 58 0.0 0.0 0.00 0.00 0.00 67 1013.3
20260831163408 76 111 0.0 0.0 0.00 0.00 0.00 69 1013.2
20260831162903 76 227 0.0 0.0 0.00 0.00 0.00 70 1013.3
20260831162357 76 59 0.0 0.0 0.00 0.00 0.00 70 1013.2
20260831161852 75 120 0.0 0.0 0.00 0.00 0.00 71 1013.1
20260831161345 74 234 0.0 0.0 0.00 0.00 0.00 72 1013.3
20260831160839 74 146 0.0 0.0 0.00 0.00 0.00 72 1013.2
20260831160557 74 112 0.0 0.0 0.00 0.00 0.00 75 1013.3
20260831155826 73 162 0.0 0.0 0.00 0.00 0.00 75 1013.2
20260831155321 72 233 0.0 0.0 0.00 0.00 0.00 78 1013.2
20260831154815 72 182 0.0 0.0 0.00 0.00 0.00 78 1013.2
20260831154309 71 88 0.0 0.0 0.00 0.00 0.00 81 1013.2
20260831153804 71 237 0.0 0.0 0.00 0.00 0.00 83 1013.2
20260831153258 70 165 0.0 0.0 0.00 0.00 0.00 84 1013.3
20260831152752 69 167 0.0 0.0 0.00 0.00 0.00 86 1013.3
20260831152246 69 163 0.0 0.0 0.00 0.00 0.00 87 1013.2
20260831151740 68 194 0.0 0.0 0.00 0.00 0.00 89 1013.2
20260831151233 67 119 0.0 0.0 0.00 0.00 0.00 91 1013.2
20260831150728 67 178 0.0 0.0 0.00 0.00 0.00 92 1013.2
20260831150445 67 76 0.0 0.0 0.00 0.00 0.00 92 1013.1
20260831150154 66 76 0.0 0.0 0.00 0.00 0.00 93 1013.1
20260831145209 66 185 0.0 0.0 0.00 0.00 0.00 94 1013.1
20260831144704 66 218 0.0 0.0 0.00 0.00 0.00 94 1013.0
20260831144419 66 243 0.0 0.0 0.00 0.00 0.00 94 1013.0
20260831143651 65 243 0.0 0.0 0.00 0.00 0.00 94 1012.9
20260831143412 65 212 0.0 0.0 0.00 0.00 0.00 95 1012.8
20260831142640 65 219 0.0 0.0 0.00 0.00 0.00 95 1012.8
20260831142438 65 74 0.0 0.0 0.00 0.00 0.00 95 1012.7
20260831142428 65 74 0.0 0.0 0.00 0.00 0.00 95 1012.4
20260831142345 65 74 0.0 0.0 0.00 0.00 0.00 95 1012.7
20260831142227 65 74 0.0 0.0 0.00 0.00 0.00 95 1012.8
20260831141849 65 74 0.0 0.0 0.00 0.00 0.00 95 1012.6
20260831140109 65 74 0.0 0.0 0.00 0.00 0.00 95 1012.4
20260831140055 65 74 0.0 0.0 0.00 0.00 0.00 95 1012.4
20260831135057 65 74 0.0 0.0 0.00 0.00 0.00 95 1012.4
20260831134552 65 74 0.0 0.0 0.00 0.00 0.00 95 1012.3
20260831134046 65 74 0.0 0.0 0.00 0.00 0.00 95 1012.1
20260831133539 65 74 0.0 0.0 0.00 0.00 0.00 95 1012.1
20260831133034 65 74 0.0 0.0 0.00 0.00 0.00 95 1012.0
20260831132527 65 74 0.0 0.0 0.00 0.00 0.00 95 1012.0
20260831132021 65 74 0.0 0.0 0.00 0.00 0.00 95 1011.9
20260831131517 65 74 0.0 0.0 0.00 0.00 0.00 95 1012.0
20260831131009 65 81 0.0 0.0 0.00 0.00 0.00 95 1011.9
20260831130727 65 71 0.0 0.0 0.00 0.00 0.00 95 1011.9
20260831125958 65 71 0.0 0.0 0.00 0.00 0.00 95 1012.0
20260831125719 65 71 0.0 0.0 0.00 0.00 0.00 95 1012.1
20260831124945 65 81 0.0 0.0 0.00 0.00 0.00 95 1012.0
20260831124924 65 80 0.0 0.0 0.00 0.00 0.00 95 1012.0
20260831123934 65 70 0.0 0.0 0.00 0.00 0.00 95 1012.0
20260831123427 65 80 0.0 0.0 0.00 0.00 0.00 95 1012.0
20260831122922 65 74 0.0 0.0 0.00 0.00 0.00 95 1012.0
20260831122415 65 77 0.0 0.0 0.00 0.00 0.00 95 1011.9
20260831121909 65 58 0.0 0.0 0.00 0.00 0.00 95 1012.1
20260831121404 65 62 0.0 0.0 0.00 0.00 0.00 95 1012.1
20260831120857 65 62 0.0 0.0 0.00 0.00 0.00 95 1012.0
20260831120831 65 72 0.0 0.0 0.00 0.00 0.00 95 1012.0
20260831115845 65 74 0.0 0.0 0.00 0.00 0.00 95 1012.1
20260831115339 66 76 0.0 0.0 0.00 0.00 0.00 95 1012.0
20260831114833 66 76 0.0 0.0 0.00 0.00 0.00 95 1011.9
20260831114329 66 76 0.0 0.0 0.00 0.00 0.00 95 1012.0
20260831113822 65 76 0.0 0.0 0.00 0.00 0.00 95 1012.0
20260831113314 65 76 0.0 0.0 0.00 0.00 0.00 95 1011.9
20260831112809 66 76 0.0 0.0 0.00 0.00 0.00 95 1012.0
20260831112306 66 76 0.0 0.0 0.00 0.00 0.00 95 1012.0
20260831111757 66 74 0.0 0.0 0.00 0.00 0.00 95 1012.0
20260831111510 66 57 0.0 0.0 0.00 0.00 0.00 95 1012.0
20260831110745 66 45 0.0 0.0 0.00 0.00 0.00 95 1012.1
20260831110239 66 94 0.0 0.0 0.00 0.00 0.00 95 1012.1
20260831105733 66 111 0.0 0.0 0.00 0.00 0.00 95 1012.1
20260831105227 66 107 0.0 0.0 0.00 0.00 0.00 95 1012.1
20260831104722 66 110 0.0 0.0 0.00 0.00 0.00 95 1012.2
20260831104215 66 110 0.0 0.0 0.00 0.00 0.00 95 1012.1
20260831103709 66 109 0.0 0.0 0.00 0.00 0.00 95 1012.1
20260831103203 66 111 0.0 0.0 0.00 0.00 0.00 95 1012.2
20260831102657 66 167 0.0 0.0 0.00 0.00 0.00 95 1012.2
20260831102150 66 109 0.0 0.0 0.00 0.00 0.00 95 1012.3
20260831101645 66 109 0.0 0.0 0.00 0.00 0.00 95 1012.2
20260831101140 66 109 0.0 0.0 0.00 0.00 0.00 95 1012.2
20260831100633 66 212 0.0 0.0 0.00 0.00 0.00 95 1012.1
20260831100127 66 182 0.0 0.0 0.00 0.00 0.00 95 1012.1
20260831100116 66 120 0.0 0.0 0.00 0.00 0.00 95 1012.1